Date,TemperatureHighF,TemperatureAvgF,TemperatureLowF,DewpointHighF,DewpointAvgF,DewpointLowF,HumidityHigh,HumidityAvg,HumidityLow,PressureMaxIn,PressureMinIn,WindSpeedMaxMPH,WindSpeedAvgMPH,GustSpeedMaxMPH,PrecipitationSumIn
2013-4-1,78.1,67.3,58.4,65.0,59.9,56.0,92,78,58,29.92,29.83,4,0,0,0.05
2013-4-2,66.3,57.2,48.1,55.0,49.2,45.0,94,77,47,30.11,29.93,5,1,0,0.00
2013-4-3,72.0,55.9,47.3,58.0,49.9,46.0,96,82,60,30.22,30.05,4,1,0,0.00
2013-4-4,62.5,56.7,51.1,61.0,52.8,47.0,95,87,71,30.22,29.82,5,1,0,0.48
2013-4-5,62.1,52.1,45.6,52.0,48.3,44.0,96,87,69,30.01,29.84,2,0,0,0.16
2013-4-6,71.6,57.5,44.3,55.0,47.3,41.0,96,73,34,30.21,30.01,5,1,0,0.00
2013-4-7,75.3,63.4,48.8,62.0,56.9,47.0,96,81,58,30.23,30.12,5,1,0,0.00
2013-4-8,80.9,66.0,51.2,65.0,59.3,50.0,96,81,56,30.18,30.10,3,0,0,0.00
2013-4-9,84.0,70.0,55.1,69.0,62.3,54.0,96,78,49,30.20,30.10,3,0,0,0.00
2013-4-10,83.0,69.8,57.0,69.0,62.5,56.0,96,79,50,30.16,30.00,3,0,0,0.00
2013-4-11,79.7,70.6,60.2,73.0,67.1,59.0,96,89,78,30.00,29.83,4,0,0,0.00
2013-4-12,80.0,72.3,67.6,74.0,69.6,66.0,95,91,81,29.84,29.70,5,1,0,0.46
2013-4-13,78.5,65.5,55.0,64.0,54.3,50.0,92,69,43,30.00,29.81,4,0,0,0.00
2013-4-14,72.2,63.0,52.2,64.0,58.9,51.0,96,87,73,30.07,29.91,3,0,0,0.21
2013-4-15,73.6,67.2,62.3,68.0,64.1,60.0,95,90,76,30.13,29.86,3,0,0,0.44
2013-4-16,80.0,69.4,59.6,69.0,63.2,58.0,96,82,61,30.22,30.13,5,0,0,0.00
2013-4-17,83.5,70.1,59.5,70.0,63.3,58.0,96,81,54,30.21,30.12,6,0,0,0.00
2013-4-18,79.9,71.3,63.6,71.0,66.3,62.0,96,85,65,30.12,30.01,6,0,0,0.00
2013-4-19,80.7,72.9,67.2,74.0,69.7,66.0,95,89,79,30.01,29.83,4,0,0,0.83
2013-4-20,66.2,56.2,46.2,65.0,52.0,44.0,96,86,66,30.22,29.92,3,0,0,0.43
2013-4-21,70.7,57.3,43.3,57.0,50.1,42.0,96,78,57,30.30,30.21,9,1,0,0.00
2013-4-22,72.5,59.3,50.3,56.0,49.7,40.0,81,71,54,30.27,30.10,4,0,0,0.00
2013-4-23,67.5,58.7,51.0,59.0,53.2,47.0,93,82,70,30.19,30.12,2,0,0,0.00
2013-4-24,80.4,64.2,47.6,65.0,57.2,46.0,99,80,51,30.17,30.05,2,0,0,0.00
2013-4-25,84.6,70.2,63.4,71.0,65.6,61.0,95,86,60,30.19,30.06,2,0,0,0.34
2013-4-26,75.3,65.9,55.3,64.0,56.4,45.0,95,75,38,30.35,30.19,5,1,0,0.00
2013-4-27,75.6,63.9,54.1,65.0,56.2,52.0,96,78,50,30.32,30.20,9,0,0,0.02
2013-4-28,76.4,68.6,59.0,68.0,63.4,56.0,96,84,72,30.20,30.02,6,0,0,0.00
2013-4-29,82.7,70.3,64.1,72.0,66.7,63.0,96,89,67,30.03,29.93,1,0,0,0.64
2013-4-30,77.6,67.6,62.8,69.0,64.3,61.0,96,89,73,30.06,29.93,3,0,0,0.00